Content
SEND FEEDBACK

Daily
Averages
Monthly
Summary
United States of America

TAMUNING, GUAM


Home > North America > United States > Guam
Elevation: 76 meters     Latitude: 13 29N     Longitude: 144 47E

WEATHER
 
SELECT A DAY
Number of Records: 342,429;   Date Range: 1/1/95 - 9/3/14
 
SHARE

PRINT THIS DATA

[ ← Previous Day ]
WEATHER ALMANAC - 25 JANUARY, 2013
[ Next Day → ]
[ °F ]   °C
Weather ElementAverageHighLow
Temperature25.5 °C29 °C (3:22 pm)23 °C (5:55 am)
Dewpoint20.4 °C22 °C (3:05 pm)16.4 °C (2:55 am)
Humidity73.7 %89 % (11:12 pm)61 % (2:55 am)
Barometer1010.8 hPa1012.9 hPa (8:55 am)1009.5 hPa (1:55 pm)
Wind Speed21.9 km/h29.6 km/h (6:55 pm)
Weather ElementAverage
Visibility16.1 km
Wind DirectionNE (42.9 °)

Weather ElementTotal
Precipitation---
Cooling Degree Days7.7 (Base 18.3)
Growing Degree Days16 (Base 10)
Averaged from 63 records on 25 January, 2013
WEATHER CONDITIONS BREAKOUT
WIND DIRECTION BREAKOUT
WEATHER BY HOUR - 25 JANUARY, 2013
[ °F ]   °C
Local TimeTemperatureDewpointHumidityBarometerVisibilityWind DirectionWind SpeedGust SpeedPrecipitationEventsConditions
12:53 AM25 °C19 °C69 %1011.5 hPa16.1 kmNorth (10°)18.5 km/hOvercast
12:55 AM24.9 °C19.1 °C70 %1011.5 hPa16.1 kmNorth (10°)18.5 km/hOvercast
12:56 AM25 °C19 °C69 %1011.5 hPa16.1 kmNorth (10°)20.4 km/hOvercast
1:05 AM25 °C19 °C69 %1011.5 hPa16.1 kmNNE (20°)18.5 km/hOvercast
1:06 AM25 °C19 °C69 %1011.5 hPa16.1 kmNNE (20°)18.5 km/hOvercast
1:08 AM25 °C19 °C69 %1011.5 hPa16.1 kmNorth (10°)18.5 km/hOvercast
1:55 AM24.5 °C17 °C63 %1011.5 hPa16.1 kmNorth (360°)13 km/hMostly Cloudy
2:55 AM24.3 °C16.4 °C61 %1011.2 hPa16.1 kmNNE (20°)20.4 km/hMostly Cloudy
3:55 AM23.9 °C17.5 °C67 %1010.8 hPa16.1 kmNNE (20°)13 km/hClear
4:55 AM23.8 °C18.9 °C74 %1011.2 hPa16.1 kmNorth (10°)16.7 km/hClear
5:55 AM23 °C18.9 °C78 %1011.5 hPa16.1 kmNNE (20°)11.1 km/hClear
6:55 AM23.9 °C19.2 °C75 %1011.9 hPa16.1 kmNorth (10°)11.1 km/hScattered Clouds
7:55 AM25 °C17.9 °C65 %1012.2 hPa16.1 kmNNE (20°)13 km/hOvercast
8:55 AM26.1 °C19.7 °C68 %1012.9 hPa16.1 kmNE (40°)20.4 km/hMostly Cloudy
9:55 AM26.2 °C20.3 °C70 %1012.9 hPa16.1 kmNE (40°)24.1 km/hMostly Cloudy
10:55 AM26.8 °C21 °C70 %1012.2 hPa16.1 kmNE (40°)18.5 km/hScattered Clouds
11:55 AM27 °C19.7 °C64 %1011.5 hPa16.1 kmNorth (10°)20.4 km/hOvercast
11:58 AM26 °C20 °C69 %1011.5 hPa16.1 kmNorth (350°)16.7 km/hRainLight Rain
12:08 PM27 °C20 °C65 %1011.5 hPa16.1 kmNNE (20°)13 km/hMostly Cloudy
12:55 PM26.2 °C21.3 °C74 %1010.8 hPa16.1 kmNorth (10°)14.8 km/h0 mmMostly Cloudy
1:37 PM27 °C21 °C70 %1009.8 hPa16.1 kmNNE (20°)25.9 km/hMostly Cloudy
1:42 PM27 °C21 °C70 %1009.8 hPa16.1 kmNNE (30°)27.8 km/hMostly Cloudy
1:55 PM27.5 °C21.3 °C69 %1009.5 hPa16.1 kmNNE (30°)24.1 km/hScattered Clouds
2:55 PM26.9 °C21.6 °C73 %1009.5 hPa16.1 kmNNE (20°)27.8 km/hScattered Clouds
3:05 PM28 °C22 °C70 %1009.5 hPa16.1 kmNNE (30°)22.2 km/hMostly Cloudy
3:22 PM29 °C21 °C62 %1009.5 hPa16.1 kmNNE (20°)24.1 km/hMostly Cloudy
3:31 PM28 °C21 °C66 %1009.5 hPa16.1 kmNNE (20°)18.5 km/hMostly Cloudy
3:41 PM28 °C21 °C66 %1009.5 hPa16.1 kmNorth (10°)16.7 km/hMostly Cloudy
3:55 PM26.4 °C21.8 °C76 %1009.5 hPa16.1 kmNNE (20°)14.8 km/hMostly Cloudy
4:01 PM26 °C22 °C78 %1009.5 hPa16.1 kmNNE (30°)14.8 km/hMostly Cloudy
4:06 PM26 °C22 °C78 %1009.5 hPa16.1 kmNE (50°)22.2 km/hLight Drizzle
4:08 PM26 °C21 °C74 %1009.5 hPa16.1 kmNE (50°)24.1 km/hLight Drizzle
4:09 PM26 °C21 °C74 %1009.5 hPa16.1 kmNE (50°)24.1 km/hLight Drizzle
4:14 PM26 °C21 °C74 %1009.5 hPa16.1 kmENE (60°)24.1 km/hLight Drizzle
4:16 PM26 °C21 °C74 %1009.5 hPa16.1 kmENE (60°)27.8 km/hMostly Cloudy
4:55 PM26.1 °C21.1 °C74 %1009.8 hPa16.1 kmNE (50°)27.8 km/h0 mmMostly Cloudy
5:16 PM26 °C21 °C74 %1009.8 hPa16.1 kmNE (40°)25.9 km/hOvercast
5:21 PM26 °C21 °C74 %1010.2 hPa16.1 kmNE (50°)24.1 km/hOvercast
5:36 PM26 °C21 °C74 %1010.2 hPa16.1 kmNE (40°)22.2 km/hMostly Cloudy
5:45 PM26 °C22 °C78 %1010.2 hPa16.1 kmNE (40°)25.9 km/hMostly Cloudy
5:55 PM25.4 °C21.4 °C78 %1010.2 hPa16.1 kmNNE (30°)27.8 km/hMostly Cloudy
6:36 PM25 °C21 °C78 %1010.2 hPa16.1 kmNE (40°)27.8 km/hScattered Clouds
6:55 PM24.9 °C20.9 °C78 %1010.5 hPa16.1 kmNE (50°)29.6 km/hPartly Cloudy
7:32 PM25 °C21 °C78 %1010.8 hPa16.1 kmNE (40°)27.8 km/hMostly Cloudy
7:55 PM25 °C21.3 °C80 %1010.8 hPa16.1 kmNE (40°)27.8 km/hMostly Cloudy
8:55 PM24.7 °C20.9 °C79 %1011.5 hPa16.1 kmNE (40°)29.6 km/hOvercast
9:11 PM25 °C21 °C78 %1011.5 hPa16.1 kmNE (40°)25.9 km/hMostly Cloudy
9:19 PM25 °C21 °C78 %1011.9 hPa16.1 kmNE (40°)29.6 km/hMostly Cloudy
9:55 PM24.7 °C20.8 °C79 %1011.9 hPa16.1 kmNNE (30°)24.1 km/hOvercast
10:10 PM25 °C21 °C78 %1011.9 hPa16.1 kmNNE (30°)25.9 km/hOvercast
10:19 PM25 °C21 °C78 %1011.9 hPa16.1 kmNE (40°)22.2 km/hOvercast
10:36 PM25 °C20 °C74 %1011.9 hPa16.1 kmNE (40°)24.1 km/hOvercast
10:40 PM25 °C21 °C78 %1011.9 hPa16.1 kmNE (40°)25.9 km/hOvercast
10:55 PM24.9 °C20.7 °C77 %1011.9 hPa16.1 kmNE (40°)24.1 km/hOvercast
10:59 PM25 °C21 °C78 %1011.9 hPa16.1 kmNE (50°)20.4 km/hRainLight Rain
11:10 PM24 °C21 °C83 %1011.9 hPa16.1 kmNE (50°)24.1 km/hOvercast
11:12 PM24 °C22 °C89 %1011.9 hPa16.1 kmNE (40°)20.4 km/hLight Drizzle
11:23 PM24 °C21 °C83 %1011.9 hPa16.1 kmNE (50°)24.1 km/hMostly Cloudy
11:32 PM24 °C21 °C83 %1011.9 hPa16.1 kmNE (40°)24.1 km/hMostly Cloudy
11:42 PM24 °C21 °C83 %1011.5 hPa16.1 kmNE (40°)18.5 km/hMostly Cloudy
11:55 PM24.3 °C20.3 °C78 %1011.5 hPa16.1 kmNE (40°)20.4 km/h0 mmOvercast
11:56 PM24 °C20 °C78 %1011.5 hPa16.1 kmNE (40°)20.4 km/hMostly Cloudy
11:58 PM25 °C20 °C74 %1011.9 hPa16.1 kmNE (40°)24.1 km/hMostly Cloudy
Hourly data recorded from PGUA, located 0 kilometers away from Tamuning, Guam







STORIES FROM OUR PARTNERS